Погода в Димитровграде

Погода в Димитровграде : погода сейчас, прогноз погоды и архив. Всё, что Вы хотите узнать о погоде в Димитровграде!

Хотите узнать прогноз погоды в Димитровграде? Тогда Вам сюда: Погода в Димитровграде

Поиск расширенной информации на нашем сайте:

Другие новости

Новости СМИ2

Главная страница сайта

Новости сайта

03.07.2017

Напоминаем, что на нашем специализированном сайте Метеоцентр.Азия вы можете получить высокодетализированные автоматические прогнозы погоды по пунктам России, СНГ и мира в авиационном формате (включающие направление и скорость ветра, видимость, явления погоды, количество и форму облачности, нижнюю и верхнюю границу облачности).


Погода в Димитровграде - сегодня

Время (UTC), дата Ветер
(°,м/с) 
Видим.   Явления Облачность Т
(°С)
Тd
(°С)
f(%) Тe
(°С)
Pmin
(гПа)
dP
(гПа)
Po
(мм)
O2
(г/м3)
Тmin Tmax R s Состояние
почвы
18 17.11.17 280 (З) 10 км    10/10 870 м 
[Sc]
+0.7 -1 88 1022.7  1.4  760  306           
21 17.11.17 070 (В) 10 км    10/8 870 м средняя 
[Sc|Ac lent]
+0.6 -1.1 88 +1  1022.7  760  306           
00 18.11.17 080 (В) 10 км    10/8 900 м средняя 
[Sc|Ac lent]
+0.5 -0.9 90 1022.5  -0.2  760  306           
03 18.11.17 050 (СВ) 10 км    4/4 900 м 
[Sc]
+0.2 -1.8 86 +1  1021.8  -0.7  759  306  +0.1         
06 18.11.17 240 (ЮЗ) 10 км    10/10 870 м 
[Sc]
+1.6 -2.2 76 +2  1021.7  -0.1  759  304           
09 18.11.17 300 (СЗ) 10 км    8/8 900 м 
[Sc]
+2.8 -1.7 72 +1  1022.4  0.9  760  303           
12 18.11.17 060 (СВ) 10 км    10/4 900 м средняя 
[Sc|Ac lent]
+1.5 -1.6 80 +2  1022.5  -0.1  760  305           
15 18.11.17 230 (ЮЗ) 10 км  {снег}  10/0 средняя 
[Ac As]
+1.2 -1.4 83 +1  1023.5  761  305    +3  0.0     
18 18.11.17 230 (ЮЗ) 10 км  {снег}  10/0 средняя 
[Ac As]
+0.8 -1.5 85 1022.7  -0.8  760  306           
21 18.11.17 230 (ЮЗ) 10 км    10/0 средняя 
[Ac As]
+1 -1.3 85 +2  1022.6  -0.1  760  305           
00 19.11.17 190 (Ю) 10 км    10/0 средняя 
[Ac As]
+1.2 -1.1 85 +2  1022.4  -0.2  760  305           
03 19.11.17 230 (ЮЗ) 10 км    10/0 средняя 
[Ac As]
+0.5 -1.5 86 +1  1023.9  1.5  761  306  +0.4         
06 19.11.17 190 (Ю) 10 км  {дождь}  10/10 840 м 
[Sc]
+0.8 -0.9 88 1025.4  1.4  762  306           
09 19.11.17 200 (Ю) 10 км    10/10 870 м 
[Sc]
+2.4 -0.9 79 +1  1025.2  762  304           
12 19.11.17 180 (Ю) 10 км    8/0 средняя, верхняя 
[Ac trans|Ci fib]
+2.8 -3 66 +1  1023.4  -1.7  761  304           
15 19.11.17 150 (ЮВ) 10 км    10/0 средняя 
[Ac As]
+1.2 -1.7 81 1022.7  -0.9  760  305    +3.1  0.0     
18 19.11.17 140 (ЮВ) 10 км    10/0 средняя 
[Ac As]
+0.7 -1.5 85 1021.9  -0.8  759  305           
21 19.11.17 150 (ЮВ) 10 км    10/0 средняя 
[Ac As]
+0.6 -1.4 86 1021.7  -0.2  759  305           
00 20.11.17 150 (ЮВ) 10 км    10/0 средняя 
[Ac As]
+0.9 -0.8 88 1020.6  -1.1  758  305           
03 20.11.17 150 (ЮВ) 10 км  слаб. дождь  10/10 700 м 
[Ns]
+1.2 +0.4 94 1019.3  -1.3  758  304  +0.5    0.7     
06 20.11.17 160 (Ю) 4000 м  слаб. дождь  10/10 700 м 
[Ns]
+1.7 +1.2 96 +2  1018.7  -0.6  757  303           
09 20.11.17 150 (ЮВ) 4000 м  слаб. морось{дождь}  10/10 700 м 
[St]
+2.5 +2 96 +3  1018.8  0.3  757  302           
12 20.11.17 130 (ЮВ) 10 км  {дождь, морось}  10/10 800 м 
[Sc]
+3.3 +2.3 93 +3  1018.8  757  301           
15 20.11.17 140 (ЮВ) 10 км    10/10 840 м 
[Sc]
+3.5 +1.7 88 +3  1018.8  757  301    +3.5     
18 20.11.17 160 (Ю) 10 км    10/10 840 м 
[Sc]
+3.1 +1 86 +3  1018.6  -0.2  757  301           
Время (UTC), дата Ветер
(°,м/с) 
Видим.   Явления Облачность Т
(°С)
Тd
(°С)
f(%) Тe
(°С)
Pmin
(гПа)
dP
(гПа)
Po
(мм)
O2
(г/м3)
Тmin Tmax R s Состояние
почвы

Для получения пояснительной информации подведите курсор к названию столбца.

ПОГОДА в Димитровграде - архив

Всё, что Вы хотите узнать о погоде в Димитровграде - удобно и подробно!

Выберите нужную дату (начиная с 1 января 2015* года) и нажмите кнопку "Найти".
Будут отображены архивные сводки погоды по пункту Димитровград, начиная с указанной даты.


Отображать данные в формате CSV (для использования в таблицах Excel)


Внимание! Наш архив погоды предназначен исключительно для личного некоммерческого использования в познавательных целях. Если Вам необходимы официальные справки о состоянии погоды (для производственных, юридических, коммерческих и т.п. целей), обращайтесь в органы Росгидромета.

*Примечание: данная дата относится к архиву по метеостанциям СССР (Россия, СНГ, Балтия).
Архив по метеостанциям Зарубежной Европы и Азии (кроме Китая) хранится 10 дней, по другим регионам земного шара (Китай, Африка, Америка, Австралия, Океания) - 1 день.

Димитровград - район местоположения метеостанции


Название, широта, долгота, высота метеостанции:
Димитровград 54.2°ш. 49.6°д. 73 м над ур. моря [Российская Федерация]

Дополнительная информация

В oтличие oт бoльшинства пoгoдных сайтoв мы публикуем пoдрoбную метеoинфoрмацию в детальнoм прoфессиoнальнoм фoрмате.

Характеристики температуры и влажнoсти вoздуха измеряются на высoте 2 м в тени вдали oт зданий и деревьев.
Скoрoсть ветра измеряется на высoте 10 м (на урoвне рoста челoвека скoрoсть ветра ниже в 1.5-2 раза). Если метеoстанция нахoдится в гoрoде или в лесу, тo скoрoсть ветра занижена на 2-4 м/с пo сравнению с oткрытым местoм. Скoрoсть ветра над акватoриями крупных рек и oзёр, а также на вершинах хoлмoв на 2-5 м/с выше, чем в oбычных услoвиях.
Атмoсфернoе давление в разных тoчках местнoсти мoжет значительнo oтличаться oт давления на метеoстанции, в зависимoсти oт услoвий рельефа (при пoдъёме на 10 м давление пoнижается примернo на 1 мм рт.ст.).